Location: Newark
(58.9986°N, 38.5006°E)
Time: 08:25:08
(UTC+00:00)

N. Korean satellite - Pass Details

Date: 17 December 2019
Orbit: 454 x 507 km, 97.2° (Epoch: 24 January)

Event Time Altitude Azimuth Distance (km) Brightness Sun altitude
Rises 15:49:47 0° 221° (SW) 2,591 11.0 -23.4°
Reaches altitude 10° 15:53:20 10° 258° (WSW) 1,703 10.4 -23.8°
Maximum altitude 15:54:27 11° 276° (W) 1,629 10.2 -24.0°
Drops below altitude 10° 15:55:35 10° 294° (WNW) 1,698 10.1 -24.1°
Sets 15:59:06 0° 331° (NNW) 2,573 10.6 -24.6°
